#timestamp,LO_Frequency,Hit,StdDev 
1626811215.2,286047002.4,N
1626811235.0,286047000.2,N
1626811235.9,286047000.2,N
1626811255.8,286047002.4,N
1626811275.6,286047002.7,N
1626811295.4,286047002.4,N
1626811315.3,286047002.8,N
1626811335.1,286047002.8,N
1626811355.8,286047002.8,N
1626811375.7,286047000.0,N
1626811395.5,286047002.6,N
1626811415.3,286047002.7,N
1626811435.2,286047000.5,N
1626811455.0,286047000.0,N
1626811455.9,286047000.0,N
1626811475.7,286047000.0,N
1626811495.6,286047000.2,N
1626811515.4,286047000.8,N
1626811535.2,286046999.9,N
1626811555.1,286046999.7,N
1626811556.0,286046999.7,N
1626811575.8,286046999.7,N
1626811595.6,286046999.7,N
1626811615.5,286047004.4,Y
1626811635.3,286047002.6,P
1626811655.1,286047000.6,N
1626811675.9,286047000.4,N
1626811695.7,286047002.6,N
1626811715.5,286047002.4,N
1626811735.4,286047002.4,N
1626811755.2,286047000.5,N
1626811775.0,286046999.8,N
1626811775.9,286046999.8,N
1626811795.8,286047000.3,N
1626811815.6,286046998.1,N
1626811835.4,286047000.6,N
1626811855.3,286047000.8,N
1626811875.1,286047000.9,N
1626811895.8,286046998.5,N
1626811915.7,286046998.1,N
1626811935.5,286046998.7,N
1626811955.3,286046998.9,N
1626811975.2,286046998.4,N
1626811995.9,286046999.4,N
1626812015.7,286046996.9,N
1626812035.6,286046999.3,N
1626812055.4,286046998.9,N
1626812075.2,286046999.4,N
1626812095.1,286046998.3,N
1626812096.0,286046998.3,N
1626812115.8,286046999.3,N
1626812135.6,286046996.6,N
1626812155.5,286046997.3,N
1626812175.3,286046999.6,N
1626812195.1,286046998.7,N
1626812215.9,286046998.4,N
1626812235.7,286046998.4,N
1626812255.5,286046998.7,N
1626812275.4,286047001.2,N
1626812295.2,286047001.1,N
1626812315.0,286046998.5,N
1626812315.9,286046998.5,N
1626812335.8,286047000.3,N
1626812355.6,286047000.7,N
1626812375.4,286047001.1,N
1626812395.3,286046998.6,N
1626812415.1,286046998.1,N
1626812435.8,286046998.6,N
1626812485.7,286046998.6,E
1626812495.6,286046998.4,N
1626812515.4,286046998.2,P
1626812535.3,286047000.5,P
1626812555.1,286047000.9,N
1626812575.8,286046999.8,N
1626812595.7,286046999.9,N
1626812615.5,286047000.7,N
1626812635.3,286047001.1,N
1626812655.2,286047000.9,N
1626812675.0,286047000.4,N
1626812675.9,286047000.4,N
1626812695.7,286047002.4,N
1626812715.6,286047000.0,N
1626812735.4,286046999.9,N
1626812755.2,286046999.7,N
1626812775.1,286047002.4,N
1626812776.0,286047002.4,N
1626812795.8,286047000.2,N
1626812815.6,286046999.7,N
1626812835.5,286047000.5,N
1626812855.3,286046998.7,N
1626812875.1,286047001.2,N
1626812895.9,286047001.1,N
1626812915.7,286046999.9,N
1626812935.5,286046998.1,N
1626812955.4,286046999.3,N
1626812975.2,286046999.4,N
1626812995.0,286046996.5,Y
1626812995.9,286046996.5,P
1626813015.8,286046996.6,N
1626813035.6,286046996.6,N
1626813055.4,286046996.8,N
1626813075.3,286046997.0,N
1626813095.1,286046999.4,N
1626813115.8,286046997.0,N
1626813135.7,286046998.9,N
1626813155.5,286047001.2,N
1626813175.3,286047000.4,N
1626813195.2,286046998.6,N
1626813215.0,286046999.2,N
1626813215.9,286046999.2,N
1626813235.7,286046998.8,N
1626813255.6,286047000.9,N
1626813275.4,286046999.9,N
1626813295.2,286047000.8,N
1626813315.1,286047000.0,N
1626813316.0,286047000.0,N
1626813335.8,286046999.7,N
1626813355.6,286047000.8,N
1626813375.5,286047000.5,N
1626813395.3,286046999.3,N
1626813415.1,286046998.6,N
1626813435.9,286046998.8,N
1626813455.7,286046999.4,N
1626813475.5,286046996.8,N
1626813495.4,286046998.3,N
1626813515.2,286046999.4,N
1626813535.0,286046998.8,N
1626813535.9,286046998.8,N
1626813555.8,286046997.1,N
1626813575.6,286046997.2,N
1626813595.4,286046998.0,N
1626813615.3,286046997.2,N
1626813635.1,286046999.4,N
1626813655.8,286046999.1,N
1626813675.7,286046999.6,N
1626813695.5,286046997.8,N
1626813715.3,286046999.5,N
1626813735.2,286046999.2,N
1626813755.0,286046996.8,N
1626813755.9,286046996.8,N
1626813775.7,286046998.0,N
1626813795.6,286046997.1,N
1626813815.4,286046997.1,N
1626813835.2,286046997.0,N
1626813855.1,286046997.0,N
1626813856.0,286046997.0,N
1626813875.8,286046996.5,N
1626813895.6,286046998.2,N
1626813915.5,286046998.9,N
1626813935.3,286046996.7,Y
1626813955.1,286047000.9,P
1626813975.9,286047000.6,N
1626813995.7,286046998.5,N
1626814015.5,286047002.1,N
1626814035.4,286046999.8,N
1626814055.2,286046999.7,N
1626814075.0,286047001.2,N
1626814076.0,286047001.2,N
1626814095.8,286047001.2,N
1626814115.6,286047001.1,N
1626814135.4,286047001.0,N
1626814155.3,286047000.9,N
1626814175.1,286047001.1,N
1626814195.8,286047002.1,N
1626814215.7,286046999.7,N
1626814235.5,286047002.2,N
1626814255.3,286047001.7,N
1626814275.2,286047001.7,N
1626814295.0,286047002.3,N
1626814295.9,286047002.3,N
1626814315.7,286047002.8,N
1626814335.6,286047002.6,N
1626814355.4,286047002.5,N
1626814375.3,286047004.0,Y
1626814395.1,286047002.5,P
1626814396.0,286047002.5,P
1626814415.8,286047002.8,P
1626814435.7,286047000.6,N
1626814455.5,286047001.0,N
1626814475.3,286047000.1,N
1626814495.2,286047000.6,N
1626814515.9,286047000.8,N
1626814535.7,286047000.9,N
1626814555.6,286047000.7,N
1626814575.4,286046998.9,N
1626814595.2,286046998.9,N
1626814615.0,286046998.5,N
1626814616.0,286046998.5,N
1626814635.8,286046998.7,N
1626814655.6,286047000.7,N
1626814675.5,286046999.9,N
1626814695.3,286047000.3,N
1626814715.1,286047002.4,N
1626814735.9,286047002.8,N
1626814755.7,286046999.9,N
1626814775.5,286047000.8,N
1626814795.3,286047001.2,N
